Hourly Data Report for May 21, 2020

TORONTO CITY
ONTARIO
Current Station Operator: ECCC - MSC

43°40'00.000" N
79°24'00.000" W
112.50 m
6158355
71508
XTO

Download Data

Hourly Data (May 2020)
Hourly Data Report for May 21, 2020
TIME
LST
Temp Definition
°C
Dew Point Definition
°C
Rel Hum Definition
%
Precip. Amount Definition
mm

Wind Dir Definition
10's deg

Wind Spd Definition
km/h
Visibility Definition
km
Stn Press Definition
kPa
Hmdx Definition


Wind Chill Definition


Weather Definition


00:00 13.4 0.5 41 0.0       101.21     LegendNANA
01:00 12.0 1.7 49 0.0       101.20     LegendNANA
02:00 11.3 1.2 50 0.0       101.20     LegendNANA
03:00 13.4 -0.8 38 0.0       101.19     LegendNANA
04:00 11.8 -1.5 39 0.0       101.18     LegendNANA
05:00 11.0 -0.5 45 0.0       101.19     LegendNANA
06:00 12.2 -1.3 39 0.0       101.23     LegendNANA
07:00 13.3 -0.2 39 0.0       101.26     LegendNANA
08:00 15.4 -3.5 27 0.0       101.28     LegendNANA
09:00 15.6 -5.1 24 0.0       101.28     LegendNANA
10:00 15.8 -6.6 21 0.0       101.26     LegendNANA
11:00 15.2 -5.5 23 0.2       101.24     LegendNANA
12:00 15.7 -6.4 21 0.0       101.21     LegendNANA
13:00 17.0 -9.5 15 0.2       101.12     LegendNANA
14:00 18.0 -10.4 13 0.0       101.08     LegendNANA
15:00 19.7 -9.6 13 0.0       100.95     LegendNANA
16:00 19.4 -10.8 12 0.2       100.86     LegendNANA
17:00 20.2 -6.0 17 0.0       100.77     LegendNANA
18:00 16.8 -6.9 19 0.0       100.74     LegendNANA
19:00 15.5 -8.2 19 0.0       100.75     LegendNANA
20:00 14.8 -11.5 15 0.0       100.74     LegendNANA
21:00 14.6 -12.7 14 0.0       100.75     LegendNANA
22:00 12.4 -0.9 40 0.0       100.77     LegendNANA
23:00 12.1 -0.3 42 0.0       100.76     LegendNANA

Notes on Data Quality.

Legend

  • E = Estimated
  • M = Missing
  • NA = Not Available*
  • [empty] = Indicates an unobserved value
Date modified: